User: anonymous   Login
Location: Fort Wayne
(41.1310°N, 85.1290°W)
Time: 06:22:39
(UTC-04:00)
Language:

Cosmos 1980 - Orbit

View from above orbital plane
View from above orbital plane
View from above satellite
View from above satellite

Ground track
Ground track

The orbit data is extracted from the following two-line orbital elements,

1 19649U 88102A   16147.48680509  .00000238  00000-0  14830-3 0  9999
2 19649  70.9987 157.4497 0005912 202.1110 157.9758 14.14645633419881
Epoch (UTC): 26 May 2016 11:40:59
Eccentricity: 0.0005912
inclination: 70.9987°
perigee height: 839 km
apogee height: 848 km
right ascension of ascending node: 157.4497°
argument of perigee: 202.1110°
revolutions per day: 14.14645633
mean anomaly at epoch: 157.9758°
orbit number at epoch: 41988

The dashed part of the orbit path shows where the satellite is in the earth's shadow,  

DLR